"2010-05-06 00:00:00",86860,1.902,237.3,6.475,0.247,12.68,105.5776,13.55,14.54,24.18,0,110.6,13.29,14.35,199.3
"2010-05-06 00:00:30",86861,2.402,241.7,8.92,0.952,13.53,105.589,13.58,14.57,24.18,0,110.6,13.25,14.38,203.7
"2010-05-06 00:01:00",86862,2.566,239.5,8.78,0.95,14.01,105.6025,13.61,14.66,24.27,0,110.6,13.25,14.41,201.5
"2010-05-06 00:01:30",86863,4.259,249.4,12.94,1.242,16.91,105.6048,13.62,14.83,24.19,0,110.6,13.25,14.42,211.4
"2010-05-06 00:02:00",86864,3.549,241.4,11.85,1.275,15.83,105.6054,13.62,14.85,24.45,0,110.6,13.25,14.42,203.4
"2010-05-06 00:02:30",86865,3.249,257.9,11.55,1.321,14.96,105.5959,13.6,14.85,25.04,0,110.6,13.25,14.40,219.9
"2010-05-06 00:03:00",86866,1.477,273.2,10.33,0.841,11.21,105.5689,13.53,14.59,24.67,0,110.6,13.25,14.33,235.2
"2010-05-06 00:03:30",86867,1.508,291.9,5.769,0.117,10.22,105.5488,13.48,14.54,24.48,0,110.6,13.28,14.28,253.9
"2010-05-06 00:04:00",86868,1.378,284.6,7.649,0.093,10.31,105.5308,13.43,14.5,24.57,0,110.6,13.28,14.23,246.6
"2010-05-06 00:04:30",86869,1.748,255.1,11.66,0.238,10.6,105.5029,13.36,14.45,24.68,0,110.6,13.28,14.16,217.1
"2010-05-06 00:05:00",86870,2.936,243.5,7.535,0.376,11.01,105.5005,13.35,14.42,24.72,0,110.6,13.28,14.15,205.5
"2010-05-06 00:05:30",86871,2.528,264.6,9.11,0.254,11.49,105.4994,13.35,14.4,24.91,0,110.6,13.28,14.15,226.6
"2010-05-06 00:06:00",86872,2.348,266.4,5.594,0.476,11.89,105.4594,13.25,14.34,25.05,0,110.6,13.28,14.05,228.4
"2010-05-06 00:06:30",86873,2.089,270.8,4.246,0.323,12.11,105.4359,13.19,14.29,25.37,0,110.6,13.28,13.99,232.8
"2010-05-06 00:07:00",86874,2.323,287.8,4.612,0.185,12.13,105.4389,13.2,14.25,25.54,0,110.6,13.28,13.99,249.8
"2010-05-06 00:07:30",86875,1.734,290.1,7.241,0.203,12.15,105.4389,13.2,14.23,25.53,0,110.6,13.28,13.99,252.1
"2010-05-06 00:08:00",86876,1.395,296.9,6.752,0.104,12.14,105.4386,13.2,14.21,25.56,0,110.6,13.28,13.99,258.9
"2010-05-06 00:08:30",86877,1.171,302.4,6.197,0.235,12.15,105.4389,13.2,14.22,25.67,0,110.6,13.28,13.99,264.4
"2010-05-06 00:09:00",86878,0.678,310.7,5.606,0.066,12.26,105.4392,13.2,14.22,25.75,0,110.6,13.28,13.99,272.7
"2010-05-06 00:09:30",86879,0.296,328,27.77,0.21,12.49,105.4392,13.2,14.22,25.76,0,110.6,13.28,13.99,290.0
"2010-05-06 00:10:00",86880,0.392,34.77,12.49,0.285,12.42,105.4392,13.2,14.22,25.81,0,110.6,13.28,13.99,356.8
"2010-05-06 00:10:30",86881,0.729,36.72,10.97,0.126,12.11,105.4392,13.2,14.23,25.88,0,110.6,13.28,13.99,358.7
"2010-05-06 00:11:00",86882,1.203,65.1,21.41,0.597,12.3,105.4459,13.21,14.24,25.73,0,110.6,13.28,14.01,27.1
"2010-05-06 00:11:30",86883,1.485,63.57,12.89,0.58,12.54,105.4606,13.25,14.24,24.44,0,110.6,13.28,14.05,25.6
"2010-05-06 00:12:00",86884,1.855,65.21,14.85,0.391,12.59,105.4606,13.25,14.25,24.39,0,110.6,13.28,14.05,27.2
"2010-05-06 00:12:30",86885,1.249,63.88,21.12,0.365,12.65,105.4642,13.26,14.26,24.33,0,110.6,13.28,14.06,25.9
"2010-05-06 00:13:00",86886,0.539,345.4,65.42,0.343,12.61,105.4693,13.27,14.26,24.51,0,110.6,13.29,14.07,307.4
"2010-05-06 00:13:30",86887,1.027,261.4,10.56,0.207,12.58,105.4426,13.21,14.26,25.02,0,110.6,13.29,14.00,223.4
"2010-05-06 00:14:00",86888,0.477,244.6,20.46,0.187,12.74,105.4392,13.2,14.25,24.88,0,110.6,13.29,13.99,206.6
"2010-05-06 00:14:30",86889,0.56,247,20.87,0.154,12.8,105.4392,13.2,14.23,24.66,0,110.6,13.29,13.99,209.0
"2010-05-06 00:15:00",86890,0.798,256.8,7.685,0.28,12.78,105.4454,13.21,14.24,24.55,0,110.6,13.29,14.01,218.8
"2010-05-06 00:15:30",86891,0.751,274.1,15.5,0.289,12.77,105.4412,13.2,14.24,24.64,0,110.6,13.29,14.00,236.1
"2010-05-06 00:16:00",86892,0.599,279.3,22.03,0.227,12.87,105.4392,13.2,14.24,24.67,0,110.6,13.29,13.99,241.3
"2010-05-06 00:16:30",86893,1.225,270.9,16.42,0.158,12.87,105.4276,13.17,14.22,24.77,0,110.6,13.29,13.97,232.9
"2010-05-06 00:17:00",86894,3.398,275.8,10.69,1.349,14.51,105.4372,13.19,14.23,25.11,0,110.6,13.25,13.99,237.8
"2010-05-06 00:17:30",86895,4.949,288.3,8.54,1.191,16.74,105.4392,13.2,14.45,26.32,0,110.6,13.25,13.99,250.3
"2010-05-06 00:18:00",86896,5.309,289.8,7.119,1.307,15.73,105.4389,13.2,14.45,26.23,0,110.6,13.25,13.99,251.8
"2010-05-06 00:18:30",86897,4.25,273.1,14.08,1.519,13.82,105.4147,13.13,14.29,26.1,0,110.6,13.25,13.93,235.1
"2010-05-06 00:19:00",86898,2.379,274.3,9.28,0.346,10.74,105.3832,13.05,14.13,26.18,0,110.6,13.28,13.85,236.3
"2010-05-06 00:19:30",86899,1.624,255.1,9.04,0.211,10.44,105.3705,13.02,14.07,25.84,0,110.6,13.28,13.82,217.1
"2010-05-06 00:20:00",86900,2.122,264.6,5.769,0.171,10.58,105.3435,12.95,14.04,25.87,0,110.6,13.28,13.75,226.6
"2010-05-06 00:20:30",86901,2.344,257.9,9.12,0.208,10.88,105.3378,12.94,14,25.8,0,110.6,13.28,13.73,219.9
"2010-05-06 00:21:00",86902,1.764,260.6,10.23,0.188,11.24,105.3378,12.94,13.96,25.83,0,110.6,13.28,13.73,222.6
"2010-05-06 00:21:30",86903,1.407,270.6,11.98,0.115,11.46,105.3378,12.94,13.95,25.67,0,110.6,13.29,13.73,232.6
"2010-05-06 00:22:00",86904,1.308,261.8,8.28,0.141,11.81,105.3378,12.94,13.94,25.54,0,110.6,13.29,13.73,223.8
"2010-05-06 00:22:30",86905,1.44,263.4,5.196,0.133,11.97,105.3378,12.94,13.96,25.52,0,110.6,13.29,13.73,225.4
"2010-05-06 00:23:00",86906,1.353,261.5,4.649,0.103,12.18,105.3378,12.94,13.94,25.85,0,110.6,13.29,13.73,223.5
"2010-05-06 00:23:30",86907,1.183,236.1,10.88,0.125,12.42,105.3311,12.92,13.94,25.8,0,110.6,13.29,13.72,198.1
"2010-05-06 00:24:00",86908,1.103,235.9,6.26,0.167,12.57,105.3122,12.87,13.93,25.81,0,110.6,13.28,13.67,197.9
"2010-05-06 00:24:30",86909,2.321,253.9,9.88,1.41,14.55,105.3071,12.86,14,25.77,0,110.6,13.25,13.66,215.9
"2010-05-06 00:25:00",86910,2.149,237.1,9.45,1.296,14.52,105.3066,12.86,14.07,25.93,0,110.6,13.25,13.65,199.1
"2010-05-06 00:25:30",86911,3.089,246.6,6.321,1.418,14.71,105.308,12.86,14.04,25.86,0,110.6,13.25,13.66,208.6
"2010-05-06 00:26:00",86912,3.022,244.9,11.9,1.425,15.59,105.3069,12.86,14.18,25.98,0,110.6,13.25,13.65,206.9
"2010-05-06 00:26:30",86913,2.427,236.7,6.703,1.31,13.26,105.3086,12.86,13.96,25.7,0,110.6,13.25,13.66,198.7
"2010-05-06 00:27:00",86914,2.749,238.4,11.61,1.29,12.85,105.3046,12.85,14.06,25.82,0,110.6,13.25,13.65,200.4
"2010-05-06 00:27:30",86915,1.303,229.7,8.23,0.173,10.99,105.3041,12.85,14,25.28,0,110.6,13.25,13.65,191.7
"2010-05-06 00:28:00",86916,1.315,239.3,16.98,0.297,10.48,105.3041,12.85,13.92,25.34,0,110.6,13.28,13.65,201.3
"2010-05-06 00:28:30",86917,0.7,197.2,8.13,0.144,10.74,105.3041,12.85,13.91,25.42,0,110.6,13.28,13.65,159.2
"2010-05-06 00:29:00",86918,0.27,228.9,31.75,0.098,10.82,105.3046,12.85,13.92,25.42,0,110.6,13.28,13.65,190.9
"2010-05-06 00:29:30",86919,0.197,258.9,31.52,0.152,10.99,105.3058,12.86,13.9,25.52,0,110.6,13.29,13.65,220.9
"2010-05-06 00:30:00",86920,0.8,271,5.38,0.279,11.22,105.2879,12.81,13.91,25.66,0,110.6,13.29,13.61,233.0
"2010-05-06 00:30:30",86921,1.049,264.9,13.02,0.203,11.45,105.2733,12.77,13.88,25.74,0,110.5,13.3,13.57,226.9
"2010-05-06 00:31:00",86922,1.076,240,5.497,0.1,11.68,105.2434,12.7,13.84,26.03,0,110.5,13.3,13.49,202.0
"2010-05-06 00:31:30",86923,1.459,251.8,6.112,0.256,11.94,105.249,12.71,13.8,25.95,0,110.5,13.3,13.51,213.8
"2010-05-06 00:32:00",86924,1.749,252,7.024,0.273,12.27,105.2188,12.63,13.76,26.04,0,110.5,13.3,13.43,214.0
"2010-05-06 00:32:30",86925,2.804,255.1,11.31,1.442,14.42,105.2199,12.64,13.81,26.18,0,110.5,13.26,13.43,217.1
"2010-05-06 00:33:00",86926,2.486,263.3,12.91,1.253,14.01,105.2214,12.64,13.84,25.94,0,110.5,13.26,13.44,225.3
"2010-05-06 00:33:30",86927,2.849,283.5,4.773,1.231,13.76,105.2252,12.65,13.8,25.87,0,110.5,13.26,13.45,245.5
"2010-05-06 00:34:00",86928,4.319,288.7,10.56,1.281,15.33,105.2311,12.66,13.88,26.18,0,110.5,13.26,13.46,250.7
"2010-05-06 00:34:30",86929,2.775,269,9.52,0.817,13.02,105.2335,12.67,13.9,26.48,0,110.5,13.26,13.47,231.0
"2010-05-06 00:35:00",86930,3.492,266,10.26,1.221,13.14,105.2356,12.68,13.71,25.97,0,110.5,13.26,13.47,228.0
"2010-05-06 00:35:30",86931,3.024,238.3,7.049,0.802,11.82,105.2374,12.68,13.81,25.64,0,110.5,13.26,13.48,200.3
"2010-05-06 00:36:00",86932,3.596,229.3,15.28,1.154,11.84,105.238,12.68,13.73,25.22,0,110.5,13.26,13.48,191.3
"2010-05-06 00:36:30",86933,3.275,211.9,12.46,1.169,12.33,105.2374,12.68,13.74,25.11,0,110.5,13.26,13.48,173.9
"2010-05-06 00:37:00",86934,2.538,215.2,3.901,0.198,11.01,105.2332,12.67,13.65,24.99,0,110.5,13.3,13.47,177.2
"2010-05-06 00:37:30",86935,2.759,216.5,2.471,0.128,11.25,105.2326,12.67,13.65,25.02,0,110.5,13.3,13.46,178.5
"2010-05-06 00:38:00",86936,2.617,214.3,8.92,0.452,11.64,105.227,12.65,13.65,24.94,0,110.5,13.3,13.45,176.3
"2010-05-06 00:38:30",86937,2.497,204.4,5.929,0.331,11.96,105.2202,12.64,13.65,24.84,0,110.5,13.3,13.43,166.4
"2010-05-06 00:39:00",86938,2.715,187.2,6.758,0.331,12.2,105.2152,12.62,13.64,24.93,0,110.5,13.3,13.42,149.2
"2010-05-06 00:39:30",86939,2.493,192.2,5.9,0.354,12.47,105.2053,12.6,13.68,25.03,0,110.5,13.3,13.39,154.2
"2010-05-06 00:40:00",86940,3.739,209.1,13.51,1.438,14.57,105.2045,12.6,13.68,24.91,0,110.6,13.27,13.39,171.1
"2010-05-06 00:40:30",86941,2.958,211.4,17.35,1.266,14.41,105.2045,12.6,13.76,24.96,0,110.5,13.27,13.39,173.4
"2010-05-06 00:41:00",86942,2.018,174.5,5.037,0.199,12.47,105.2053,12.6,13.68,25.06,0,110.5,13.31,13.39,136.5
"2010-05-06 00:41:30",86943,3.632,201.2,8.44,1.287,15.95,105.2053,12.6,13.89,25.48,0,110.5,13.27,13.39,163.2
"2010-05-06 00:42:00",86944,3.809,188.5,8.03,1.328,15.1,105.2084,12.61,13.86,25.66,0,110.5,13.27,13.40,150.5
"2010-05-06 00:42:30",86945,3.558,199.2,20.57,1.171,13.65,105.2132,12.62,13.8,25.67,0,110.5,13.27,13.41,161.2
"2010-05-06 00:43:00",86946,2.305,195.5,10.92,0.635,10.93,105.2157,12.62,13.65,25.39,0,110.5,13.27,13.42,157.5
"2010-05-06 00:43:30",86947,1.857,200.2,7.142,0.457,10.74,105.2163,12.63,13.66,25.36,0,110.5,13.3,13.42,162.2
"2010-05-06 00:44:00",86948,2.483,187,10.19,0.419,10.97,105.2154,12.62,13.67,25.41,0,110.5,13.3,13.42,149.0
"2010-05-06 00:44:30",86949,1.307,189.3,14.79,0.296,11.21,105.2121,12.62,13.67,25.28,0,110.5,13.31,13.41,151.3
"2010-05-06 00:45:00",86950,1.041,205.8,7.698,0.194,11.52,105.2078,12.6,13.67,25.33,0,110.5,13.31,13.40,167.8
"2010-05-06 00:45:30",86951,1.345,206.2,4.611,0.302,11.86,105.2053,12.6,13.67,25.27,0,110.5,13.31,13.39,168.2
"2010-05-06 00:46:00",86952,1.38,201.9,8.61,0.517,12.2,105.2045,12.6,13.74,25.68,0,110.5,13.27,13.39,163.9
"2010-05-06 00:46:30",86953,2.751,197.7,9.81,1.477,14.41,105.205,12.6,13.77,25.64,0,110.5,13.27,13.39,159.7
"2010-05-06 00:47:00",86954,1.477,202.6,6.449,0.104,12.1,105.2059,12.6,13.67,25.87,0,110.5,13.31,13.40,164.6
"2010-05-06 00:47:30",86955,1.58,205.4,8.91,0.341,12.06,105.2098,12.61,13.67,26.01,0,110.5,13.31,13.41,167.4
"2010-05-06 00:48:00",86956,1.671,186.9,11.57,0.193,12.16,105.2139,12.62,13.67,25.86,0,110.5,13.31,13.42,148.9
"2010-05-06 00:48:30",86957,3.112,188.2,14.14,1.052,15.44,105.2199,12.64,13.89,26.04,0,110.5,13.27,13.43,150.2
"2010-05-06 00:49:00",86958,3.407,206.5,7.139,1.1,16.52,105.2229,12.64,13.94,25.97,0,110.5,13.27,13.44,168.5
"2010-05-06 00:49:30",86959,1.938,212,10.85,1.204,13.35,105.2209,12.64,13.81,25.9,0,110.5,13.27,13.43,174.0
"2010-05-06 00:50:00",86960,1.187,191.8,12.08,0.144,11.14,105.2152,12.62,13.65,25.94,0,110.5,13.31,13.42,153.8
"2010-05-06 00:50:30",86961,0.943,203.6,6.119,0.103,10.69,105.2067,12.6,13.67,25.81,0,110.4,13.31,13.40,165.6
"2010-05-06 00:51:00",86962,0.933,224.3,6.518,0.152,10.67,105.2056,12.6,13.65,25.71,0,110.5,13.31,13.39,186.3
"2010-05-06 00:51:30",86963,0.926,221.7,6.247,0.239,11.05,105.2062,12.6,13.64,25.7,0,110.4,13.31,13.40,183.7
"2010-05-06 00:52:00",86964,0.548,241.2,10.2,0.088,11.28,105.2062,12.6,13.63,25.57,0,110.4,13.31,13.40,203.2
"2010-05-06 00:52:30",86965,0.595,248.6,4.657,0.079,11.45,105.2062,12.6,13.63,25.51,0,110.4,13.31,13.40,210.6
"2010-05-06 00:53:00",86966,0.744,252.8,7.48,0.077,12.1,105.2062,12.6,13.72,25.59,0,110.4,13.31,13.40,214.8
"2010-05-06 00:53:30",86967,1.559,256.4,11.6,1.299,13.9,105.2062,12.6,13.69,25.52,0,110.4,13.28,13.40,218.4
"2010-05-06 00:54:00",86968,0.859,242.4,12.22,0.159,11.93,105.2023,12.59,13.69,25.61,0,110.4,13.32,13.39,204.4
"2010-05-06 00:54:30",86969,1.142,229.6,4.753,0.264,11.53,105.1983,12.58,13.62,25.81,0,110.4,13.32,13.38,191.6
"2010-05-06 00:55:00",86970,1.299,232.5,6.888,0.193,11.59,105.1885,12.55,13.6,25.6,0,110.4,13.32,13.35,194.5
"2010-05-06 00:55:30",86971,0.839,241.8,7.954,0.474,11.83,105.1749,12.52,13.59,25.52,0,110.4,13.32,13.32,203.8
"2010-05-06 00:56:00",86972,0.468,221.8,12.74,0.136,11.89,105.1724,12.51,13.61,25.51,0,110.4,13.32,13.31,183.8
"2010-05-06 00:56:30",86973,0.827,214.5,8.04,0.265,12.03,105.1724,12.51,13.59,25.46,0,110.4,13.32,13.31,176.5
"2010-05-06 00:57:00",86974,0.649,194.4,7.178,0.219,12.15,105.1724,12.51,13.58,25.28,0,110.4,13.33,13.31,156.4
"2010-05-06 00:57:30",86975,0.215,157.2,20.54,0.11,12.32,105.1724,12.51,13.59,25.43,0,110.4,13.32,13.31,119.2
"2010-05-06 00:58:00",86976,0.356,146.9,11.17,0.12,12.52,105.1721,12.51,13.57,25.46,0,110.4,13.32,13.31,108.9
"2010-05-06 00:58:30",86977,1.402,145.9,13.59,1.299,14.38,105.162,12.49,13.69,25.5,0,110.4,13.28,13.28,107.9
"2010-05-06 00:59:00",86978,2.776,121.9,22.82,0.768,17.41,105.1431,12.44,13.88,25.81,0,110.4,13.28,13.23,83.9
"2010-05-06 00:59:30",86979,1.08,97.3,37.52,1.36,13.81,105.1386,12.43,13.61,25.7,0,110.4,13.28,13.22,59.3
"2010-05-06 01:00:00",86980,0.217,113.7,11.12,0.084,10.91,105.1386,12.43,13.5,25.7,0,110.4,13.31,13.22,75.7
"2010-05-06 01:00:30",86981,0.066,108.4,56.53,0.137,10.65,105.1386,12.43,13.49,25.87,0,110.4,13.31,13.22,70.4
"2010-05-06 01:01:00",86982,0.028,136,35.76,0.106,10.59,105.1383,12.43,13.48,25.94,0,110.4,13.31,13.22,98.0
"2010-05-06 01:01:30",86983,0.032,146.3,19.05,0.062,10.67,105.1364,12.42,13.45,25.99,0,110.4,13.32,13.22,108.3
"2010-05-06 01:02:00",86984,0.035,144.5,42.4,0.069,10.98,105.1282,12.4,13.45,25.96,0,110.4,13.32,13.20,106.5
"2010-05-06 01:02:30",86985,0.156,62.53,7.628,0.066,10.97,105.1225,12.39,13.44,25.95,0,110.4,13.32,13.18,24.5
"2010-05-06 01:03:00",86986,0.401,111.2,32.81,0.167,11.24,105.1234,12.39,13.43,25.96,0,110.4,13.33,13.18,73.2
"2010-05-06 01:03:30",86987,0.668,157.3,5.487,0.145,11.54,105.122,12.38,13.43,25.87,0,110.4,13.33,13.18,119.3
"2010-05-06 01:04:00",86988,2.138,161.8,8.22,1.407,13.88,105.1246,12.39,13.57,25.84,0,110.4,13.29,13.19,123.8
"2010-05-06 01:04:30",86989,0.952,113.3,26.6,0.898,12.73,105.1212,12.38,13.6,25.92,0,110.4,13.29,13.18,75.3
"2010-05-06 01:05:00",86990,0.17,135.2,27.41,0.147,11.67,105.1234,12.39,13.43,25.86,0,110.4,13.33,13.18,97.2
"2010-05-06 01:05:30",86991,-0.004,81.2,14.25,0.062,11.69,105.1187,12.38,13.46,25.92,0,110.4,13.33,13.17,43.2
"2010-05-06 01:06:00",86992,0.05,74.16,27.65,0.058,11.65,105.1178,12.37,13.45,25.88,0,110.4,13.33,13.17,36.2
"2010-05-06 01:06:30",86993,0.04,39.26,67.43,0.119,11.8,105.1211,12.38,13.45,25.9,0,110.4,13.33,13.18,1.3
"2010-05-06 01:07:00",86994,0.257,36.72,12.58,0.076,11.82,105.1232,12.39,13.43,25.97,0,110.4,13.33,13.18,358.7
"2010-05-06 01:07:30",86995,0.12,2.196,26.12,0.183,12.14,105.1264,12.4,13.41,26.07,0,110.4,13.33,13.19,324.2
"2010-05-06 01:08:00",86996,0.247,4.555,21.91,0.165,12.22,105.1282,12.4,13.4,26.09,0,110.4,13.33,13.20,326.6
"2010-05-06 01:08:30",86997,0.386,346.3,21.33,0.238,12.28,105.1306,12.41,13.41,26.11,0,110.4,13.33,13.20,308.3
"2010-05-06 01:09:00",86998,0.378,344.5,6.239,0.133,12.37,105.1329,12.41,13.4,26.06,0,110.4,13.33,13.21,306.5
"2010-05-06 01:09:30",86999,1.825,354.7,11.09,1.338,15,105.1371,12.42,13.65,26.31,0,110.4,13.29,13.22,316.7
"2010-05-06 01:10:00",87000,2.638,329.5,13.28,1.341,15.78,105.1389,12.43,13.69,26.38,0,110.4,13.29,13.22,291.5
"2010-05-06 01:10:30",87001,1.912,306.9,5.116,1.351,14.32,105.1392,12.43,13.52,26.22,0,110.4,13.29,13.22,268.9
"2010-05-06 01:11:00",87002,0.566,307.2,9.33,0.105,11.21,105.1293,12.4,13.46,26.11,0,110.4,13.33,13.20,269.2
"2010-05-06 01:11:30",87003,0.536,297.4,9.86,0.09,10.73,105.1206,12.38,13.38,26.05,0,110.4,13.33,13.18,259.4
"2010-05-06 01:12:00",87004,0.537,318.1,6.576,0.053,10.61,105.1144,12.37,13.39,26.05,0,110.4,13.33,13.16,280.1
"2010-05-06 01:12:30",87005,0.467,318.1,3.892,0.074,10.76,105.1088,12.35,13.4,26.08,0,110.4,13.33,13.15,280.1
"2010-05-06 01:13:00",87006,1.009,321.4,5.309,1.067,11.75,105.1065,12.35,13.37,26.13,0,110.4,13.3,13.14,283.4
"2010-05-06 01:13:30",87007,0.998,328.7,10.84,1.154,12.67,105.1065,12.35,13.55,26.27,0,110.4,13.3,13.14,290.7
"2010-05-06 01:14:00",87008,1.041,331.5,10.63,1.062,11.86,105.1065,12.35,13.38,26.15,0,110.4,13.3,13.14,293.5
"2010-05-06 01:14:30",87009,0.641,308.8,6.331,0.083,11.15,105.1065,12.35,13.37,26.15,0,110.4,13.33,13.14,270.8
"2010-05-06 01:15:00",87010,0.49,311.5,9.52,0.066,11.19,105.1065,12.35,13.37,26.12,0,110.4,13.33,13.14,273.5
"2010-05-06 01:15:30",87011,0.364,322.8,4.723,0.091,11.4,105.1065,12.35,13.38,26.11,0,110.4,13.33,13.14,284.8
"2010-05-06 01:16:00",87012,0.325,345.7,4.373,0.08,11.49,105.1006,12.33,13.37,26.1,0,110.4,13.33,13.13,307.7
"2010-05-06 01:16:30",87013,0.16,10.74,13.46,0.089,11.83,105.0961,12.32,13.36,26.08,0,110.4,13.33,13.11,332.7
"2010-05-06 01:17:00",87014,0.024,8.05,20.97,0.096,12.01,105.08,12.28,13.36,26.11,0,110.4,13.33,13.07,330.0
"2010-05-06 01:17:30",87015,0.167,18.25,6.468,0.139,12.14,105.0727,12.26,13.35,26.13,0,110.4,13.33,13.05,340.2
"2010-05-06 01:18:00",87016,0.135,18.43,6.045,0.084,12.35,105.0727,12.26,13.33,26.13,0,110.4,13.33,13.05,340.4
"2010-05-06 01:18:30",87017,0.409,27.49,4.308,0.051,12.44,105.0727,12.26,13.33,26.13,0,110.4,13.33,13.05,349.5
"2010-05-06 01:19:00",87018,0.949,34.75,5.714,1.127,13.28,105.0727,12.26,13.31,26.13,0,110.4,13.3,13.05,356.8
"2010-05-06 01:19:30",87019,1.746,49.23,11.2,1.392,14.97,105.0727,12.26,13.6,26.44,0,110.4,13.3,13.05,11.2
"2010-05-06 01:20:00",87020,1.828,57.56,4.412,1.332,14.39,105.069,12.25,13.36,26.2,0,110.4,13.3,13.04,19.6
"2010-05-06 01:20:30",87021,0.658,54.21,3.106,0.054,11.93,105.0524,12.21,13.3,26.22,0,110.4,13.34,13.00,16.2
"2010-05-06 01:21:00",87022,0.767,43.12,2.861,0.031,11.27,105.0417,12.18,13.37,26.33,0,110.4,13.34,12.97,5.1
"2010-05-06 01:21:30",87023,1.934,46.28,8.89,1.379,13.39,105.0421,12.18,13.38,26.35,0,110.4,13.31,12.97,8.3
"2010-05-06 01:22:00",87024,0.671,49.82,4.965,0.071,11.17,105.0442,12.19,13.27,26.29,0,110.4,13.34,12.98,11.8
"2010-05-06 01:22:30",87025,0.607,35.23,3.719,0.088,10.97,105.0454,12.19,13.28,26.33,0,110.4,13.34,12.98,357.2
"2010-05-06 01:23:00",87026,1.491,34.08,6.61,1.202,13.03,105.0467,12.19,13.38,26.49,0,110.4,13.31,12.99,356.1
"2010-05-06 01:23:30",87027,0.5,14.9,6.678,0.534,11.46,105.0417,12.18,13.33,26.46,0,110.4,13.31,12.97,336.9
"2010-05-06 01:24:00",87028,0.819,28.46,5.184,0.116,10.94,105.0359,12.16,13.24,26.39,0,110.4,13.34,12.96,350.5
"2010-05-06 01:24:30",87029,0.657,19.18,3.602,0.12,10.94,105.0276,12.14,13.22,26.38,0,110.4,13.34,12.94,341.2
"2010-05-06 01:25:00",87030,0.467,3.121,13.36,0.136,11.16,105.0285,12.15,13.22,26.39,0,110.4,13.34,12.94,325.1
"2010-05-06 01:25:30",87031,0.203,6.404,10.66,0.09,11.43,105.0308,12.15,13.2,26.41,0,110.4,13.34,12.95,328.4
"2010-05-06 01:26:00",87032,0.117,3.719,12.67,0.112,11.61,105.0329,12.16,13.19,26.42,0,110.4,13.34,12.95,325.7
"2010-05-06 01:26:30",87033,0.228,13.3,10.54,0.108,11.74,105.0326,12.16,13.19,26.44,0,110.4,13.35,12.95,335.3
"2010-05-06 01:27:00",87034,0.399,24.37,9.7,0.1,11.94,105.0268,12.14,13.18,26.42,0,110.4,13.35,12.94,346.4
"2010-05-06 01:27:30",87035,1.077,41.71,6.934,0.936,13.2,105.0134,12.11,13.27,26.57,0,110.3,13.31,12.90,3.7
"2010-05-06 01:28:00",87036,1.524,42.12,7.305,1.125,13.25,105.0073,12.09,13.25,26.61,0,110.3,13.31,12.89,4.1
"2010-05-06 01:28:30",87037,1.773,60.55,9.01,1.203,14.36,105.0062,12.09,13.35,26.66,0,110.4,13.31,12.88,22.5
"2010-05-06 01:29:00",87038,2.257,64.55,6.634,1.358,14.45,105.0065,12.09,13.28,26.62,0,110.3,13.31,12.88,26.6
"2010-05-06 01:29:30",87039,1.086,67.32,4.183,0.062,11.85,105.0068,12.09,13.14,26.49,0,110.3,13.35,12.88,29.3
"2010-05-06 01:30:00",87040,1.127,71.86,1.223,0.059,11.63,105.0068,12.09,13.13,26.51,0,110.3,13.35,12.88,33.9
"2010-05-06 01:30:30",87041,2.505,71.9,7.612,1.347,13.92,105.002,12.08,13.3,26.69,0,110.3,13.31,12.87,33.9
"2010-05-06 01:31:00",87042,0.954,67.15,8.06,0.22,11.51,104.9822,12.03,13.11,26.54,0,110.3,13.34,12.82,29.2
"2010-05-06 01:31:30",87043,1.75,74.67,10.19,1.367,13.11,104.9729,12,13.18,26.61,0,110.3,13.31,12.80,36.7
"2010-05-06 01:32:00",87044,1.444,85.3,16.18,1.301,13.04,104.9729,12,13.25,26.72,0,110.3,13.31,12.80,47.3
"2010-05-06 01:32:30",87045,1.082,95.7,3.924,0.057,11.02,104.9729,12,13.08,26.59,0,110.3,13.34,12.80,57.7
"2010-05-06 01:33:00",87046,1.251,96,2.803,0.08,11.09,104.9729,12,13.07,26.59,0,110.3,13.34,12.80,58.0
"2010-05-06 01:33:30",87047,1.215,96,4.111,0.076,11.32,104.9729,12,13.07,26.6,0,110.3,13.34,12.80,58.0
"2010-05-06 01:34:00",87048,1.285,96.1,5.11,0.084,11.62,104.9718,12,13.06,26.63,0,110.3,13.34,12.79,58.1
"2010-05-06 01:34:30",87049,1.145,97.2,1.611,0.111,11.84,104.967,11.99,13.05,26.63,0,110.3,13.35,12.78,59.2
"2010-05-06 01:35:00",87050,1.983,100.9,5.245,1.299,14.17,104.9507,11.95,13.15,26.7,0,110.3,13.31,12.74,62.9
"2010-05-06 01:35:30",87051,1.82,105.1,6.167,1.175,14.18,104.9419,11.92,13.17,26.75,0,110.3,13.31,12.72,67.1
"2010-05-06 01:36:00",87052,1.836,105.6,7.558,1.352,14.28,104.9394,11.92,13.07,26.63,0,110.4,13.31,12.71,67.6
"2010-05-06 01:36:30",87053,0.769,105.4,1.392,0.059,11.92,104.9391,11.92,13.05,26.68,0,110.3,13.35,12.71,67.4
"2010-05-06 01:37:00",87054,0.701,105,3.947,0.043,11.49,104.9391,11.92,13.01,26.65,0,110.3,13.35,12.71,67.0
"2010-05-06 01:37:30",87055,1.436,100.3,4.86,1.223,13.61,104.9391,11.92,13.2,26.84,0,110.3,13.32,12.71,62.3
"2010-05-06 01:38:00",87056,0.949,86.7,10.89,1.029,12.18,104.9391,11.92,13.08,26.77,0,110.3,13.32,12.71,48.7
"2010-05-06 01:38:30",87057,0.543,90.6,4.113,0.069,11.56,104.9394,11.92,13,26.73,0,110.3,13.36,12.71,52.6
"2010-05-06 01:39:00",87058,0.659,92.5,4.674,0.049,11.23,104.9369,11.91,12.99,26.74,0,110.3,13.36,12.70,54.5
"2010-05-06 01:39:30",87059,0.777,102.6,5.762,0.045,11.08,104.9233,11.88,12.99,26.75,0,110.3,13.36,12.67,64.6
"2010-05-06 01:40:00",87060,1.945,117.4,8.37,1.327,13.47,104.9192,11.87,13.14,26.93,0,110.3,13.32,12.66,79.4
"2010-05-06 01:40:30",87061,0.846,109.8,2.262,0.044,11.32,104.9128,11.85,13.01,26.85,0,110.3,13.36,12.64,71.8
"2010-05-06 01:41:00",87062,0.716,115.7,2.456,0.071,11.41,104.9097,11.84,12.96,26.81,0,110.3,13.36,12.63,77.7
"2010-05-06 01:41:30",87063,0.634,108.1,3.782,0.034,11.26,104.9094,11.84,12.96,26.82,0,110.3,13.36,12.63,70.1
"2010-05-06 01:42:00",87064,0.638,105.8,3.426,0.059,11.45,104.9138,11.85,12.95,26.86,0,110.3,13.36,12.65,67.8
"2010-05-06 01:42:30",87065,0.652,114.1,6.085,0.063,11.8,104.9162,11.86,12.94,26.89,0,110.3,13.36,12.65,76.1
"2010-05-06 01:43:00",87066,0.751,112.6,1.852,0.067,12.15,104.9174,11.86,12.95,26.91,0,110.3,13.36,12.65,74.6
"2010-05-06 01:43:30",87067,1.895,121.3,7.683,1.257,14.61,104.9207,11.87,13.16,27.19,0,110.3,13.33,12.66,83.3
"2010-05-06 01:44:00",87068,1.814,116.1,15.45,1.413,14.33,104.9156,11.86,13.13,27.18,0,110.3,13.33,12.65,78.1
"2010-05-06 01:44:30",87069,1.078,90.6,3.391,0.126,11.98,104.9049,11.83,12.92,27,0,110.3,13.36,12.62,52.6
"2010-05-06 01:45:00",87070,1.941,101.2,5.632,1.352,13.3,104.8977,11.81,12.97,27.13,0,110.3,13.33,12.60,63.2
"2010-05-06 01:45:30",87071,1.837,92.3,7.434,0.911,11.93,104.8975,11.81,12.99,27.15,0,110.3,13.32,12.60,54.3
"2010-05-06 01:46:00",87072,2.668,92.9,6.192,1.254,13.63,104.9016,11.82,13.01,27.25,0,110.3,13.33,12.61,54.9
"2010-05-06 01:46:30",87073,1.885,85.3,3.471,0.214,11.41,104.9049,11.83,12.88,27.14,0,110.3,13.36,12.62,47.3
"2010-05-06 01:47:00",87074,2.057,81.3,1.62,0.101,11.34,104.9063,11.83,12.88,27.14,0,110.3,13.36,12.63,43.3
"2010-05-06 01:47:30",87075,2.995,79.37,7.234,1.263,13.56,104.9063,11.83,13.01,27.22,0,110.3,13.32,12.63,41.4
"2010-05-06 01:48:00",87076,2.732,87.4,11.75,1.239,13.52,104.9064,11.83,13.02,27.23,0,110.3,13.32,12.63,49.4
"2010-05-06 01:48:30",87077,2.292,83.6,2.804,0.138,11.88,104.9041,11.83,12.87,27.18,0,110.3,13.36,12.62,45.6
"2010-05-06 01:49:00",87078,2.143,96.2,4.832,0.122,12.02,104.899,11.81,12.85,27.17,0,110.3,13.36,12.61,58.2